Location: Henham
(51.9333°N, 0.2500°E)
Time: 01:32:10
(UTC+00:00)

Cosmos 1300 - Pass Details

Date: 23 October 2019
Orbit: 511 x 515 km, 82.5° (Epoch: 12 November)

Event Time Altitude Azimuth Distance (km) Brightness Sun altitude
Rises 18:52:20 0° 196° (SSW) 2,621 6.4 -19.6°
Reaches altitude 10° 18:54:28 10° 199° (SSW) 1,739 5.5 -20.0°
Maximum altitude 18:58:16 66° 282° (WNW) 568 3.0 -20.5°
Drops below altitude 10° 19:02:05 10° 6° (N) 1,752 5.4 -21.1°
Sets 19:04:15 0° 9° (N) 2,643 6.3 -21.5°
